UAL984 KDCA-KEWR

Flight info

Callsign UAL984
Flight time N/A
Altitude 29000
Route SOOKI5 SWANN PHLBO4
Aircraft B738/M-SDE2E3FGHIRWXY/LB1

Departure

Time 2026-05-03 21:21
Airport Ronald Reagan Washington National Airport (KDCA)

Arrival

Time N/A
Airport Newark Liberty International Airport (KEWR)
Time Latitude Longitude Altitude Speed Heading
2026-05-03 21:06 38.84997 -77.04044 24 ft 0 kts 300°
2026-05-03 21:11 38.84993 -77.04036 24 ft 2 kts 301°
2026-05-03 21:11 38.84986 -77.04019 24 ft 2 kts 301°
2026-05-03 21:11 38.84978 -77.04003 23 ft 1 kts 301°
2026-05-03 21:11 38.84974 -77.03992 23 ft 2 kts 284°
2026-05-03 21:12 38.84975 -77.03973 23 ft 2 kts 239°
2026-05-03 21:12 38.84987 -77.03960 23 ft 2 kts 198°
2026-05-03 21:12 38.84996 -77.03959 23 ft 1 kts 174°
2026-05-03 21:12 38.85003 -77.03960 23 ft 0 kts 173°
2026-05-03 21:14 38.84992 -77.03959 23 ft 8 kts 176°
2026-05-03 21:14 38.84913 -77.03954 22 ft 12 kts 178°
2026-05-03 21:14 38.84874 -77.03919 22 ft 10 kts 118°
2026-05-03 21:15 38.84792 -77.03882 21 ft 19 kts 176°
2026-05-03 21:15 38.84659 -77.03868 20 ft 19 kts 175°
2026-05-03 21:15 38.84515 -77.03854 17 ft 19 kts 176°
2026-05-03 21:15 38.84395 -77.03841 17 ft 17 kts 175°
2026-05-03 21:16 38.84286 -77.03832 16 ft 13 kts 178°
2026-05-03 21:16 38.84224 -77.03812 15 ft 7 kts 142°
2026-05-03 21:16 38.84210 -77.03795 15 ft 0 kts 136°
2026-05-03 21:19 38.84201 -77.03783 14 ft 4 kts 135°
2026-05-03 21:20 38.84186 -77.03713 14 ft 10 kts 61°
2026-05-03 21:20 38.84275 -77.03689 16 ft 33 kts 356°
2026-05-03 21:20 38.84835 -77.03746 20 ft 123 kts 355°
2026-05-03 21:20 38.85935 -77.03781 222 ft 178 kts 358°
2026-05-03 21:21 38.87140 -77.03876 1138 ft 183 kts 336°
2026-05-03 21:21 38.88153 -77.04858 2077 ft 189 kts 313°
2026-05-03 21:21 38.89114 -77.06107 2811 ft 206 kts 316°
2026-05-03 21:21 38.90159 -77.07451 3596 ft 220 kts 308°
2026-05-03 21:22 38.91003 -77.09132 4356 ft 235 kts 298°
2026-05-03 21:22 38.91817 -77.10990 5170 ft 247 kts 307°
2026-05-03 21:22 38.93092 -77.12425 6193 ft 251 kts 326°
2026-05-03 21:22 38.94627 -77.13521 7254 ft 253 kts 332°
2026-05-03 21:23 38.96204 -77.14347 8316 ft 255 kts 342°
2026-05-03 21:23 38.97975 -77.14600 9307 ft 262 kts 359°
2026-05-03 21:23 38.99776 -77.14151 10282 ft 271 kts 15°
2026-05-03 21:23 39.01436 -77.12929 11151 ft 284 kts 31°
2026-05-03 21:24 39.02939 -77.11300 11965 ft 295 kts 41°
2026-05-03 21:24 39.04104 -77.09062 12808 ft 309 kts 62°
2026-05-03 21:24 39.04715 -77.06387 13565 ft 321 kts 74°
2026-05-03 21:24 39.05100 -77.03553 14345 ft 328 kts 77°
2026-05-03 21:25 39.05441 -77.00684 15166 ft 332 kts 77°
2026-05-03 21:25 39.05785 -76.97766 15942 ft 336 kts 77°
2026-05-03 21:25 39.06152 -76.94756 16656 ft 343 kts 77°
2026-05-03 21:25 39.06531 -76.91726 17416 ft 347 kts 77°
2026-05-03 21:26 39.06923 -76.88627 18151 ft 352 kts 77°
2026-05-03 21:26 39.07317 -76.85533 18834 ft 357 kts 77°
2026-05-03 21:26 39.07719 -76.82367 19580 ft 361 kts 77°
2026-05-03 21:26 39.08126 -76.79163 20224 ft 367 kts 77°
2026-05-03 21:27 39.08536 -76.75929 20925 ft 370 kts 76°
2026-05-03 21:27 39.08960 -76.72628 21553 ft 376 kts 76°
2026-05-03 21:27 39.09408 -76.69332 22229 ft 379 kts 75°
2026-05-03 21:27 39.09884 -76.65976 22868 ft 383 kts 75°
2026-05-03 21:28 39.10364 -76.62643 23445 ft 388 kts 75°
2026-05-03 21:28 39.10854 -76.59238 24056 ft 392 kts 75°
2026-05-03 21:28 39.11348 -76.55772 24649 ft 396 kts 75°
2026-05-03 21:28 39.11841 -76.52276 25173 ft 402 kts 75°
2026-05-03 21:29 39.12303 -76.48769 25615 ft 409 kts 77°
2026-05-03 21:29 39.12727 -76.45158 26240 ft 410 kts 77°
2026-05-03 21:29 39.13126 -76.41538 26832 ft 411 kts 77°
2026-05-03 21:29 39.13523 -76.37869 27452 ft 411 kts 78°
2026-05-03 21:30 39.13898 -76.34388 27955 ft 413 kts 78°
2026-05-03 21:30 39.14319 -76.30817 28526 ft 411 kts 76°
2026-05-03 21:30 39.14927 -76.27254 28949 ft 410 kts 68°
2026-05-03 21:30 39.15977 -76.23856 29018 ft 405 kts 54°
2026-05-03 21:31 39.17480 -76.20846 29037 ft 391 kts 44°
2026-05-03 21:31 39.19235 -76.18251 29031 ft 382 kts 37°
2026-05-03 21:31 39.23057 -76.13547 29027 ft 377 kts 33°
2026-05-03 21:32 39.26952 -76.09022 29025 ft 377 kts 33°
2026-05-03 21:32 39.30841 -76.04497 29021 ft 377 kts 33°
2026-05-03 21:33 39.56216 -75.74695 29082 ft 391 kts 34°
2026-05-03 21:33 39.86947 -75.38052 28957 ft 404 kts 35°